Torna al catalogo

TITAN 4 CENTAUR R/B

AttivoGEO
NORAD 27712·ROCKET BODY·🇺🇸 United States

Lanciato Apr 8, 2003 da Cape Canaveral Space Force Station

Loading…

TLE

AggiornatoSource: Space-Track

Epoca: Sep 13, 2026, 23:08 UTC

1 27712U 03012B   26256.96413832  .00000086  00000-0  00000+0 0  9995
2 27712  11.2749  22.6844 0023193 278.3436  81.4262  1.00591107 26681

Traccia TITAN 4 CENTAUR R/B in tempo reale con AllMySat

Download on the App Store